sat.trackr.live / text

‹ back to catalog

STARLINK-35005

NORAD 65456 · 2025-194Y

PAYLOAD ACTIVE UNKNOWN

§ Identity

Operator
Country
US
Launch date
2025-09-03
Launch site
AFWTR
Launch vehicle
Mass (kg)
RCS (m²)

Purposes: comms

External: N2YO · Heavens-Above · Gunter

§ Orbital elements

Epoch: 2026-09-20T13:11:32.726112Z

Period
93.91 min
Inclination
97.2853°
Eccentricity
0.0001610
Mean motion
15.33447502 rev/d
Perigee alt
464.4 km
Apogee alt
466.6 km
Semi-major
6,843.7 km
B*
3.5949e-4
RAAN
113.1723°
Arg perigee
84.6437°
Mean anomaly
275.4990°
Rev number
5,907

§ Raw data

STARLINK-350051 65456U 25194Y   26263.54968433  .00011550  00000+0  35949-3 0  99922 65456  97.2853 113.1723 0001610  84.6437 275.4990 15.33447502 59071

JSON: /api/v1/satellites/65456 · /tle

For live sub-satellite position, see the globe view (requires WebGL).

§ Visibility from observer

Set your observer location to see the next 7 days of passes ≥ 10°. The values pass through the URL so the page stays shareable.

No JS? Fill the form by hand. The geolocation button needs JavaScript.